506  
ASUS41 KALY 211510  
RWRALY  
 
NEW YORK STATE HOURLY WEATHER ROUNDUP  
NATIONAL WEATHER SERVICE ALBANY NY  
1100 AM EDT THU SEP 21 2017  
 
NOTE: "FAIR" INDICATES FEW OR NO CLOUDS BELOW 12,000 FEET WITH NO  
SIGNIFICANT WEATHER AND/OR NO S TO VISIBILITY
.  
 
NYZ032-033-038>043-046>054-057>066-NYZ062>081-082-084-211600-  
EAST  
 
 
CITY SKY/WX TMP DP RH WIND PRES REMARKS
 
ALBANY PTSUNNY 71 62 73 NE7 30.09S  
GLENS FALLS MOSUNNY 70 62 76 NE8 30.09F  
POUGHKEEPSIE MOSUNNY 75 63 66 N12 30.05R  
NEWBURGH MOSUNNY 73 66 78 N14G21 30.07S  
MONTGOMERY CLOUDY 74 65 73 N10 30.06S  
WHITE PLAINS PTSUNNY 75 63 66 N14G21 30.02S  
ISLIP CLOUDY 74 63 68 N15G26 29.98R  
NEW YORK CITY CLOUDY 76 64 66 N12 30.01S  
CENTRAL PARK CLOUDY 77 64 64 VRB7 30.05R  

 
 
NYZ005>009-017-018-044>046-055-056-211600-  
CENTRAL  
 
 
CITY SKY/WX TMP DP RH WIND PRES REMARKS
 
FULTON MOSUNNY 70 64 81 CALM 30.11F  
SYRACUSE CLOUDY 71 66 84 CALM 30.10F  
ROME MOSUNNY 69 64 84 S5 30.11F  
ELMIRA CLOUDY 67 65 93 CALM 30.13R FOG  
BINGHAMTON SUNNY 68 63 84 N3 30.14S  
MONTICELLO SUNNY 74 62 66 VRB3 30.11S  

 
 
NYZ026>034-041>043-087-211600-  
NORTH  
 
 
CITY SKY/WX TMP DP RH WIND PRES REMARKS
 
WATERTOWN SUNNY 73 66 78 NE8 30.11S  
FORT DRUM NOT AVBL  
OGDENSBURG FAIR 72 61 68 N3 30.14S  
MASSENA SUNNY 70 57 63 E10 30.15F  
SARANAC LAKE SUNNY 71 57 61 E10 30.15S  
PLATTSBURGH SUNNY 71 55 56 N9 30.13S  

 
 
NYZ001>004-010>016-019>021-085-211600-  
WEST  
 
 
CITY SKY/WX TMP DP RH WIND PRES REMARKS
 
NIAGARA FALLS SUNNY 77 64 64 E5 30.13R  
BUFFALO MOSUNNY 75 64 68 E5 30.14R  
DUNKIRK SUNNY 73 65 75 NW8 30.13R  
JAMESTOWN SUNNY 69 64 84 CALM 30.17R  
WELLSVILLE SUNNY 67 62 84 NW3 30.19R  
ROCHESTER PTSUNNY 66 66 100 NW3 30.14R FOG  
PENN YAN CLOUDY 68 62 81 NW3 30.14S  

 
 
KEY  
WCI = WIND CHILL INDEX  
VSB = VISIBILITY  
HX = HEAT INDEX  

 
 
 
CLICK HERE TO GO TO PREVIOUS BULLETINS.

The Nexlab NY Page
The Nexlab VT Page
The Nexlab MA Page
The Nexlab CT Page Main Text Page